This demonstration page uses our WeatherBlox Daily Observations layout. Learn more.

Left ArrowRight Arrow

Hourly Observations for September 13, 2016

Temp ( °F °C ) Dew Point ( °F °C ) Humidity (%) Winds ( mph kmh ) Pressure ( in mb ) Visibility ( mi km ) Precip ( " mm )
12:51 am 00:51 Clear 69 20.6 57 13.9 66 66 E 9 15 29.85 1011 10 16.0934 0 0
1:51 am 01:51 Clear 67 19.4 58 14.4 73 73 E 9 15 29.85 1011 10 16.0934 0 0
2:51 am 02:51 Clear 67 19.4 57 13.9 71 71 E 5 7 29.87 1012 10 16.0934 0 0
3:51 am 03:51 Clear 63 17.2 59 15 87 87 Calm 29.89 1012 10 16.0934 0 0
4:51 am 04:51 Clear 64 17.8 57 13.9 78 78 E 9 15 29.9 1012 10 16.0934 0 0
5:51 am 05:51 Clear 66 18.9 56 13.3 70 70 ESE 10 17 29.91 1013 10 16.0934 0 0
6:51 am 06:51 Sunny 67 19.4 56 13.3 68 68 ESE 10 17 29.93 1014 10 16.0934 0 0
7:51 am 07:51 Sunny 72 22.2 56 13.3 57 57 E 13 20 29.92 1013 10 16.0934 0 0
8:51 am 08:51 Sunny 76 24.4 54 12.2 47 47 ESE 7 11 29.93 1014 10 16.0934 0 0
9:51 am 09:51 Sunny 78 25.6 56 13.3 47 47 S 6 9 29.94 1014 10 16.0934 0 0
10:51 am 10:51 Sunny 80 26.7 58 14.4 47 47 SSE 8 13 29.93 1014 10 16.0934 0 0
11:51 am 11:51 Sunny 83 28.3 58 14.4 43 43 SSE 13 20 29.91 1013 10 16.0934 0 0
12:51 pm 12:51 Sunny 86 30 58 14.4 39 39 SSE 8 13 29.88 1012 10 16.0934 0 0
1:51 pm 13:51 Sunny 88 31.1 57 13.9 35 35 ENE 8 13 29.84 1011 10 16.0934 0 0
2:51 pm 14:51 Sunny 90 32.2 51 10.6 26 26 S 13 20 29.81 1009 10 16.0934 0 0
3:51 pm 15:51 Sunny 86 30 53 11.7 32 32 SSE 7 11 29.81 1010 10 16.0934 0 0
4:02 pm 16:02 Sunny with Nearby Thunderstorms 86 30 53 11.7 32 32 SE 7 11 29.71 1006 10 16.0934 0 0
4:16 pm 16:16 Mostly Cloudy with Thunderstorms 82 27.8 55 12.8 40 40 WSW 18 30 29.74 1007 10 16.0934 0 0
4:26 pm 16:26 Mostly Cloudy with Nearby Thunderstorms 78 25.6 56 13.3 47 47 W 15 24 29.8 1009 10 16.0934 0 0
4:40 pm 16:40 Windy with Storms Likely 67 19.4 60 15.6 79 79 WNW 24 39 29.85 1011 8 12.87472 0 0.0254
4:51 pm 16:51 Cloudy with Nearby Thunderstorms 66 18.9 61 16.1 84 84 NW 17 28 29.92 1013 9 14.48406 0 0.0254
4:58 pm 16:58 Cloudy with Light Thunderstorms 67 19.4 61 16.1 81 81 NNW 18 30 29.91 1013 8 12.87472 0 0.0254
5:13 pm 17:13 Cloudy with Nearby Thunderstorms 68 20 61 16.1 78 78 N 15 24 29.88 1012 10 16.0934 0.05 1.27
5:28 pm 17:28 Cloudy with Light Rain 70 21.1 60 15.6 71 71 N 15 24 29.88 1012 10 16.0934 0.05 1.27
5:51 pm 17:51 Mostly Cloudy 72 22.2 59 15 64 64 NE 13 20 29.9 1013 10 16.0934 0.05 1.27
6:06 pm 18:06 Mostly Cloudy with Nearby Thunderstorms 72 22.2 59 15 64 64 VRB 7 11 29.85 1011 10 16.0934 0 0
6:21 pm 18:21 Mostly Cloudy with Thunderstorms 69 20.6 61 16.1 76 76 WSW 13 20 29.94 1014 10 16.0934 0 0
6:34 pm 18:34 Cloudy with Thunderstorms 66 18.9 61 16.1 84 84 W 8 13 29.97 1015 1.75 2.816345 0.05 1.27
6:45 pm 18:45 Cloudy with Light Thunderstorms 64 18 63 17 94 94 NE 8 13 29.94 1014 3 4.82802 0.16 4.064
6:51 pm 18:51 Cloudy with Nearby Thunderstorms 66 18.9 63 17.2 90 90 NNE 13 20 29.94 1014 10 16.0934 0.16 4.064
7:01 pm 19:01 Cloudy 66 18.9 63 17.2 90 90 NNE 14 22 29.94 1014 10 16.0934 0 0.0254
7:21 pm 19:21 Partly Cloudy 68 20 59 15 73 73 SE 12 19 29.91 1013 10 16.0934 0 0.0254
7:51 pm 19:51 Mostly Clear 69 20.6 58 14.4 68 68 ENE 9 15 29.94 1014 10 16.0934 0 0.0254
8:51 pm 20:51 Clear 70 21.1 56 13.3 61 61 E 13 20 29.94 1014 10 16.0934 0 0
9:51 pm 21:51 Clear 71 21.7 55 12.8 57 57 E 8 13 29.93 1014 10 16.0934 0 0
10:51 pm 22:51 Clear 67 19.4 59 15 76 76 SE 5 7 29.94 1014 10 16.0934 0 0
11:51 pm 23:51 Clear 67 19.4 57 13.9 71 71 ESE 14 22 29.95 1014 10 16.0934 0 0

Powered by AerisWeather